Weather observations for the past three days for
Nausori International Airport
| Date | Time (+12) | Wind (kph) | Vis. (km) | Weather | Sky Cond. | Temperature (ºC) | Relative Humidity | Wind Chill (°C) | Heat Index (°C) | Pressure | Precipitation (cm) | ||||||
|---|---|---|---|---|---|---|---|---|---|---|---|---|---|---|---|---|---|
| Air | Dwpt | 6 hour | altimeter (cm) | sea level (mb) | 1 hr | 3 hr | 6 hr | ||||||||||
| Max. | Min. | ||||||||||||||||
| 02 | 07:00 | E 13 | 0.00 | Mostly Cloudy | BKN020 BKN045 | 22 | 19 | 83% | 0 | 0.0 | |||||||
| 02 | 06:00 | E 11 | 0.00 | Mostly Cloudy | SCT020 BKN045 | 21 | 19 | 88% | 0 | 0.0 | |||||||
| 02 | 05:00 | E 15 | 0.00 | Light Showers Rain | SCT020 BKN045 | 21 | 20 | 94% | 0 | 0.0 | |||||||
| 02 | 04:00 | E 13 | 0.00 | Mostly Cloudy | SCT022 BKN045 | 21 | 19 | 88% | 0 | 0.0 | |||||||
| 02 | 03:00 | Calm | 0.00 | Mostly Cloudy | BKN022 BKN045 | 20 | 19 | 94% | 0 | 0.0 | |||||||
| 02 | 02:00 | SE 6 | 0.00 | Mostly Cloudy | BKN022 BKN045 | 20 | 19 | 94% | 0 | 0.0 | |||||||
| 02 | 00:00 | E 7 | 0.00 | Mostly Cloudy | SCT022 BKN045 | 21 | 19 | 88% | 0 | 0.0 | |||||||
| 01 | 23:00 | E 7 | 0.00 | Mostly Cloudy | SCT022 BKN045 | 22 | 19 | 83% | 0 | 0.0 | |||||||
| 01 | 22:00 | E 13 | 0.00 | Mostly Cloudy | SCT022 BKN045 | 21 | 18 | 83% | 0 | 0.0 | |||||||
| 01 | 21:00 | E 13 | 0.00 | Mostly Cloudy | SCT022 BKN045 | 21 | 18 | 83% | 0 | 0.0 | |||||||
| 01 | 20:00 | E 13 | 0.00 | Mostly Cloudy | BKN020 BKN045 | 21 | 18 | 83% | 0 | 0.0 | |||||||
| 01 | 19:00 | E 9 | 0.00 | Mostly Cloudy | BKN018 BKN042 | 21 | 19 | 88% | 0 | 0.0 | |||||||
| 01 | 18:00 | S 7 | 0.00 | Light Showers Rain | BKN017 BKN042 | 21 | 20 | 94% | 0 | 0.0 | |||||||
| 01 | 17:00 | S 7 | 0.00 | Light Showers Rain | FEW010 BKN017 BKN042 | 20 | 20 | 100% | 0 | 0.0 | |||||||
| 01 | 16:00 | SE 13 | 0.00 | Light Showers Rain | FEW010 BKN017 BKN042 | 21 | 20 | 94% | 0 | 0.0 | |||||||
| 01 | 15:00 | SE 19 | 0.00 | Light Showers Rain | FEW011 BKN018 BKN042 | 21 | 20 | 94% | 0 | 0.0 | |||||||
| 01 | 14:00 | SE 13 | 0.00 | Light Showers Rain | FEW012 BKN018 BKN042 | 22 | 21 | 94% | 0 | 0.0 | |||||||
| 01 | 13:00 | E 20 | 0.00 | Mostly Cloudy | BKN022 BKN045 | 23 | 20 | 83% | 0 | 0.0 | |||||||
| 01 | 12:00 | E 26 | 0.00 | Mostly Cloudy | BKN022 BKN045 | 24 | 19 | 74% | 25 | 0 | 0.0 | ||||||
| 01 | 11:00 | E 20 | 0.00 | Mostly Cloudy | BKN022 BKN045 | 24 | 20 | 78% | 24 | 0 | 0.0 | ||||||
| 01 | 10:00 | E 19 | 0.00 | Mostly Cloudy | BKN022 BKN045 | 24 | 20 | 78% | 24 | 0 | 0.0 | ||||||
| 01 | 09:00 | E 19 | 0.00 | Mostly Cloudy | BKN022 BKN043 | 23 | 19 | 78% | 0 | 0.0 | |||||||
| 01 | 08:00 | E 11 | 0.00 | Mostly Cloudy | SCT023 BKN043 | 21 | 19 | 88% | 0 | 0.0 | |||||||
| 01 | 07:00 | Vrbl 4 | 0.00 | Mostly Cloudy | FEW023 BKN043 | 21 | 19 | 88% | 0 | 0.0 | |||||||
| 01 | 06:00 | E 7 | 0.00 | Mostly Cloudy | FEW023 BKN120 | 21 | 19 | 88% | 0 | 0.0 | |||||||
| 01 | 05:00 | E 9 | 0.00 | Mostly Cloudy | BKN023 BKN045 | 21 | 19 | 88% | 0 | 0.0 | |||||||
| 01 | 04:00 | E 9 | 0.00 | Mostly Cloudy | BKN023 BKN045 | 22 | 19 | 83% | 0 | 0.0 | |||||||
| 01 | 03:00 | Calm | 0.00 | Mostly Cloudy | BKN023 BKN045 | 21 | 19 | 88% | 0 | 0.0 | |||||||
| 01 | 02:00 | E 7 | 0.00 | Mostly Cloudy | BKN023 BKN045 | 21 | 19 | 88% | 0 | 0.0 | |||||||
| 01 | 01:00 | Vrbl 4 | 0.00 | Mostly Cloudy | BKN023 BKN045 | 21 | 20 | 94% | 0 | 0.0 | |||||||
| 01 | 00:00 | Vrbl 4 | 0.00 | Mostly Cloudy | BKN023 BKN045 | 21 | 20 | 94% | 0 | 0.0 | |||||||
| 31 | 23:00 | Calm | 0.00 | Mostly Cloudy | SCT020 BKN045 | 21 | 20 | 94% | 0 | 0.0 | |||||||
| 31 | 22:00 | Vrbl 2 | 0.00 | Mostly Cloudy | BKN020 BKN045 | 21 | 20 | 94% | 0 | 0.0 | |||||||
| 31 | 21:00 | S 6 | 0.00 | Mostly Cloudy | BKN020 BKN045 | 21 | 20 | 94% | 0 | 0.0 | |||||||
| 31 | 20:00 | S 7 | 0.00 | Mostly Cloudy | BKN020 BKN045 | 22 | 20 | 88% | 0 | 0.0 | |||||||
| 31 | 19:00 | SE 9 | 0.00 | Mostly Cloudy | BKN020 BKN045 | 22 | 20 | 88% | 0 | 0.0 | |||||||
| 31 | 18:00 | SE 6 | 0.00 | Mostly Cloudy | BKN020 BKN045 | 22 | 19 | 83% | 0 | 0.0 | |||||||
| 31 | 17:00 | SE 11 | 0.00 | Mostly Cloudy | BKN022 BKN045 | 22 | 19 | 83% | 0 | 0.0 | |||||||
| 31 | 16:00 | SE 15 | 0.00 | Mostly Cloudy | SCT022 BKN045 | 23 | 19 | 78% | 0 | 0.0 | |||||||
| 31 | 15:00 | SE 9 | 0.00 | Mostly Cloudy | SCT022 BKN045 | 23 | 19 | 78% | 0 | 0.0 | |||||||
| 31 | 14:00 | E 13 | 0.00 | Mostly Cloudy | SCT022 BKN045 | 23 | 20 | 83% | 0 | 0.0 | |||||||
| 31 | 13:00 | E 11 | 0.00 | Mostly Cloudy | SCT022 BKN045 | 23 | 20 | 83% | 0 | 0.0 | |||||||
| 31 | 12:00 | SE 9 | 0.00 | Light Rain | SCT022 BKN045 | 23 | 21 | 89% | 0 | 0.0 | |||||||
| 31 | 11:00 | E 11 | 0.00 | Mostly Cloudy | SCT025 BKN045 | 23 | 20 | 83% | 0 | 0.0 | |||||||
| 31 | 10:00 | E 13 | 0.00 | Mostly Cloudy | SCT025 BKN045 | 23 | 20 | 83% | 0 | 0.0 | |||||||
| 31 | 09:00 | E 13 | 0.00 | Mostly Cloudy | SCT025 BKN045 | 24 | 20 | 78% | 24 | 0 | 0.0 | ||||||
| 31 | 08:00 | Calm | 0.00 | Mostly Cloudy | SCT025 BKN045 | 22 | 20 | 88% | 0 | 0.0 | |||||||
| 31 | 07:00 | Calm | 0.00 | Mostly Cloudy | SCT025 BKN045 | 20 | 20 | 100% | 0 | 0.0 | |||||||
| 31 | 06:00 | Vrbl 4 | 0.00 | Partly Cloudy | SCT025 SCT045 | 20 | 20 | 100% | 0 | 0.0 | |||||||
| 31 | 05:00 | Calm | 0.00 | Mostly Cloudy | SCT025 BKN045 | 20 | 20 | 100% | 0 | 0.0 | |||||||
| 31 | 04:00 | Calm | 0.00 | Partly Cloudy | SCT025 SCT045 | 20 | 20 | 100% | 0 | 0.0 | |||||||
| 31 | 03:00 | Calm | 0.00 | Mostly Cloudy | BKN027 | 19 | 19 | 100% | 0 | 0.0 | |||||||
| 31 | 02:00 | Calm | 0.00 | A Few Clouds | FEW027 | 19 | 19 | 100% | 0 | 0.0 | |||||||
| 31 | 01:00 | Calm | 0.00 | Partly Cloudy | SCT027 | 20 | 19 | 94% | 0 | 0.0 | |||||||
| 31 | 00:00 | E 9 | 0.00 | Partly Cloudy | SCT027 SCT047 | 22 | 19 | 83% | 0 | 0.0 | |||||||
| 30 | 23:00 | E 7 | 0.00 | Mostly Cloudy | SCT020 BKN045 | 22 | 19 | 83% | 0 | 0.0 | |||||||
| 30 | 22:00 | SE 15 | 0.00 | Mostly Cloudy | SCT020 BKN045 | 23 | 19 | 78% | 0 | 0.0 | |||||||
| 30 | 21:00 | SE 7 | 0.00 | Mostly Cloudy | SCT020 BKN045 | 22 | 19 | 83% | 0 | 0.0 | |||||||
| 30 | 20:00 | SE 11 | 0.00 | Mostly Cloudy | SCT020 BKN045 | 22 | 19 | 83% | 0 | 0.0 | |||||||
| 30 | 19:00 | S 13 | 0.00 | Mostly Cloudy | SCT020 BKN045 | 23 | 19 | 78% | 0 | 0.0 | |||||||
| 30 | 18:00 | S 11 | 0.00 | Mostly Cloudy | SCT022 BKN045 | 23 | 18 | 74% | 0 | 0.0 | |||||||
| 30 | 17:00 | S 19 | 0.00 | Mostly Cloudy | SCT022 BKN045 | 24 | 18 | 69% | 25 | 0 | 0.0 | ||||||
| 30 | 16:00 | S 13 | 0.00 | Mostly Cloudy | SCT022 BKN045 | 24 | 20 | 78% | 24 | 0 | 0.0 | ||||||
| 30 | 15:00 | S 20 | 0.00 | Partly Cloudy | SCT024 | 25 | 21 | 79% | 26 | 0 | 0.0 | ||||||
| 30 | 14:00 | SE 20 | 0.00 | Partly Cloudy | SCT024 | 26 | 20 | 70% | 27 | 0 | 0.0 | ||||||
| 30 | 13:00 | S 15 | 0.00 | Mostly Cloudy | BKN024 | 26 | 20 | 70% | 27 | 0 | 0.0 | ||||||
| 30 | 12:00 | S 17 | 0.00 | Mostly Cloudy | BKN024 | 26 | 20 | 70% | 27 | 0 | 0.0 | ||||||
| 30 | 11:00 | S 13 | 0.00 | Partly Cloudy | SCT024 | 27 | 21 | 70% | 29 | 0 | 0.0 | ||||||
| 30 | 10:00 | S 13 | 0.00 | Partly Cloudy | SCT024 | 26 | 20 | 70% | 27 | 0 | 0.0 | ||||||
| 30 | 09:00 | SW 9 | 0.00 | Partly Cloudy | FEW016 SCT024 | 24 | 21 | 83% | 24 | 0 | 0.0 | ||||||
| 30 | 08:00 | Calm | 0.00 | A Few Clouds | FEW020 | 22 | 21 | 94% | 0 | 0.0 | |||||||
| Date | Time (+12) | Wind (kph) | Vis. (km) | Weather | Sky Cond. | Air | Dwpt | Max. | Min. | Relative Humidity | Wind Chill (°C) | Heat Index (°C) | altimeter (cm) | sea level (mb) | 1 hr | 3 hr | 6 hr |
| 6 hour | |||||||||||||||||
| Temperature (ºC) | Pressure | Precipitation (cm) | |||||||||||||||